Location: Sungai Bunut
(2.6333°N, 113.7333°E)
Time: 07:09:07
(UTC+00:00)

Vanguard 3 - Pass Details

Date: 05 December 2023
Orbit: 508 x 3239 km, 33.3° (Epoch: 21 February)

Event Time Altitude Azimuth Distance (km) Brightness Sun altitude
Rises 01:19:18 0° 246° (WSW) 3,388 10.1 40.3°
Reaches altitude 10° 01:24:07 10° 209° (SSW) 2,992 10.2 41.3°
Maximum altitude 01:25:58 11° 195° (SSW) 3,134 10.5 41.7°
Drops below altitude 10° 01:28:02 10° 180° (S) 3,450 10.9 42.1°
Sets 01:35:40 0° 149° (SSE) 5,302 12.0 43.7°
